FW5711 Weather Reports


time (UTC)temp
F
wind
direction
speed
knots
gust
knots
rain 1hr
in
rain 24hr
in
rain mn
in
humidity
%
barometer
mb
20260906231551 65 360 5.2 10.4 0.00 0.01 0.00 72 1015.7
20260906230048 65 286 6.1 10.4 0.00 0.01 0.00 73 1015.9
20260906224545 66 325 4.3 9.6 0.00 0.01 0.00 72 1015.9
20260906223044 66 298 4.3 8.7 0.00 0.01 0.00 70 1016.2
20260906221547 66 297 2.6 7.0 0.00 0.01 0.00 70 1016.2
20260906220120 66 308 0.9 4.3 0.00 0.01 0.00 69 1016.1
20260906214545 65 360 1.7 7.0 0.00 0.01 0.00 70 1016.1
20260906213050 65 5 2.6 7.0 0.00 0.01 0.00 70 1016.3
20260906211544 65 37 2.6 7.8 0.00 0.01 0.00 70 1016.2
20260906210104 65 38 6.1 8.7 0.00 0.01 0.00 69 1016.2
20260906204545 64 349 2.6 7.0 0.00 0.01 0.00 70 1016.1
20260906203049 64 360 4.3 8.7 0.00 0.01 0.00 70 1016.3
20260906201546 64 360 3.5 7.8 0.00 0.01 0.00 71 1016.3
20260906200049 64 0 1.7 4.3 0.00 0.01 0.00 72 1016.5
20260906194607 63 104 2.6 7.0 0.00 0.01 0.00 73 1016.6
20260906193044 63 19 1.7 9.6 0.00 0.01 0.00 73 1016.8
20260906191543 63 38 7.0 11.3 0.00 0.01 0.00 73 1016.9
20260906190045 63 43 7.0 12.2 0.00 0.01 0.00 75 1016.9
20260906184604 62 43 7.8 12.2 0.00 0.01 0.00 75 1016.8
20260906183057 61 27 7.8 10.4 0.00 0.01 0.00 77 1017.0
20260906181546 60 38 7.8 12.2 0.00 0.01 0.00 81 1017.3
20260906180049 59 46 6.1 12.2 0.00 0.01 0.00 87 1017.4
20260906174545 58 49 13.0 17.4 0.00 0.02 0.00 93 1016.7
20260906173045 57 24 9.6 12.2 0.00 0.02 0.00 90 1017.6
20260906171546 57 318 3.5 7.0 0.00 0.02 0.00 87 1018.7
20260906170050 57 295 3.5 8.7 0.00 0.02 0.00 87 1018.5
20260906164553 56 279 2.6 7.8 0.00 0.02 0.00 88 1018.7
20260906163050 56 284 3.5 7.0 0.00 0.02 0.00 88 1018.8
20260906161543 55 311 4.3 8.7 0.00 0.02 0.00 89 1018.6
20260906160050 55 311 5.2 11.3 0.00 0.02 0.00 89 1018.6
20260906154545 54 295 7.0 13.0 0.00 0.02 0.00 89 1018.8
20260906153046 54 317 5.2 12.2 0.00 0.02 0.00 88 1019.0
20260906151549 55 316 4.3 12.2 0.00 0.02 0.00 88 1019.2
20260906150056 56 292 7.8 12.2 0.00 0.02 0.00 87 1019.4
20260906144557 56 240 7.8 13.9 0.00 0.02 0.00 86 1019.4
20260906143044 59 267 6.1 12.2 0.00 0.02 0.00 85 1019.7
20260906141549 59 311 0.9 2.6 0.00 0.02 0.00 87 1019.2
20260906140044 58 26 0.9 2.6 0.00 0.02 0.00 87 1018.9
20260906134543 58 0 0.0 3.5 0.00 0.04 0.00 87 1019.1
20260906133046 58 15 1.7 4.3 0.00 0.04 0.00 88 1019.0
20260906131542 57 304 1.7 4.3 0.00 0.04 0.00 88 1018.7
20260906130049 57 5 4.3 7.8 0.00 0.04 0.00 88 1018.9
20260906124550 57 11 6.1 10.4 0.00 0.04 0.00 88 1018.9
20260906123045 57 352 5.2 9.6 0.00 0.04 0.00 88 1019.3
20260906121545 57 351 6.1 11.3 0.00 0.04 0.00 88 1018.8
20260906120050 57 360 6.1 11.3 0.00 0.04 0.00 88 1018.6
20260906114550 57 5 7.8 12.2 0.00 0.04 0.00 87 1018.8
20260906113045 57 5 6.1 12.2 0.00 0.04 0.00 87 1019.1
20260906111549 57 352 6.1 12.2 0.00 0.04 0.00 87 1019.0
20260906110045 57 5 6.1 11.3 0.00 0.04 0.00 87 1018.8
20260906104605 57 349 7.8 13.0 0.00 0.04 0.00 86 1019.1
20260906103044 57 5 8.7 14.8 0.00 0.04 0.00 86 1019.1
20260906101545 57 340 10.4 15.6 0.00 0.04 0.00 85 1019.0
20260906100046 58 360 10.4 15.6 0.00 0.04 0.00 85 1019.1
20260906094612 58 344 7.8 13.0 0.00 0.04 0.00 85 1019.0
20260906093047 58 5 7.8 12.2 0.00 0.04 0.00 85 1019.0
20260906091547 58 352 6.1 13.0 0.00 0.04 0.00 85 1019.1
20260906090048 58 13 6.1 11.3 0.00 0.04 0.00 85 1019.3
20260906084545 58 327 5.2 11.3 0.00 0.04 0.00 85 1019.5
20260906083045 58 323 3.5 7.8 0.00 0.04 0.00 86 1019.8
20260906081552 58 311 3.5 8.7 0.00 0.04 0.00 86 1020.0
20260906080050 57 351 3.5 6.1 0.00 0.04 0.00 87 1020.0
20260906074546 56 346 3.5 7.0 0.00 0.04 0.00 88 1020.0
20260906073044 56 344 2.6 4.3 0.00 0.04 0.00 87 1020.0
20260906071544 56 323 2.6 7.0 0.00 0.04 0.00 86 1020.1
20260906070044 57 5 1.7 7.8 0.00 0.04 0.00 85 1020.2
20260906064545 57 360 6.1 10.4 0.00 0.04 0.00 86 1020.3
20260906063045 57 9 5.2 8.7 0.00 0.04 0.00 86 1020.5
20260906061547 56 275 3.5 7.8 0.00 0.04 0.00 86 1020.7
20260906060043 56 297 2.6 7.0 0.00 0.04 0.00 86 1020.6
20260906054545 56 297 2.6 7.8 0.00 0.04 0.04 86 1020.5
20260906053044 56 339 5.2 12.2 0.01 0.04 0.04 86 1020.5
20260906051545 56 5 6.1 10.4 0.01 0.04 0.04 86 1020.0
20260906050053 57 352 5.2 11.3 0.01 0.04 0.04 85 1019.9
20260906044546 57 352 8.7 13.9 0.01 0.04 0.04 83 1019.8
20260906043047 58 352 7.0 11.3 0.00 0.03 0.03 80 1020.2
20260906041547 58 351 8.7 14.8 0.00 0.03 0.03 80 1019.3
20260906040045 58 310 8.7 14.8 0.00 0.03 0.03 80 1019.1
20260906034558 58 309 7.0 11.3 0.00 0.03 0.03 78 1019.1
20260906033045 59 340 7.8 13.0 0.00 0.03 0.03 75 1019.4
20260906031618 60 338 8.7 16.5 0.00 0.03 0.03 71 1019.5
20260906030046 62 323 7.0 13.9 0.00 0.03 0.03 65 1020.5
20260906024546 62 15 15.6 20.9 0.00 0.03 0.03 65 1018.1
20260906023049 62 11 14.8 19.1 0.00 0.03 0.03 64 1017.8
20260906021549 63 20 13.9 20.9 0.00 0.03 0.03 63 1017.8
20260906020056 64 5 10.4 18.2 0.00 0.03 0.03 59 1017.8
20260906014555 65 5 10.4 13.9 0.00 0.03 0.03 57 1017.8
20260906013044 66 10 8.7 12.2 0.00 0.03 0.03 56 1017.8
20260906011543 67 360 9.6 14.8 0.00 0.03 0.03 53 1017.9
20260906010044 68 5 11.3 15.6 0.00 0.03 0.03 51 1017.8
20260906004541 69 18 12.2 16.5 0.00 0.03 0.03 49 1018.0
20260906003046 72 5 9.6 13.0 0.00 0.03 0.03 43 1018.0
20260906001544 72 360 9.6 13.9 0.00 0.03 0.03 42 1018.0
20260906000044 72 360 8.7 13.9 0.00 0.03 0.03 42 1017.9
20260905234546 72 16 11.3 15.6 0.00 0.03 0.03 41 1018.0
20260905233045 74 336 7.0 11.3 0.00 0.03 0.03 39 1018.3